Read MPEC 2003-L22
Read MPEC 2003-L24
M.P.E.C. 2003-L23 Issued 2003 June 7, 19:20 UT
The Minor Planet Electronic Circulars contain information on unusual
minor planets and routine data on comets. They are published
on behalf of Commission 20 of the International Astronomical Union by the
Minor Planet Center, Smithsonian Astrophysical Observatory,
Cambridge, MA 02138, U.S.A.
Prepared using the Tamkin Foundation Computer Network
MPC@CFA.HARVARD.EDU
URL http://cfa-www.harvard.edu/iau/mpc.html ISSN 1523-6714
COMET C/2003 G1 (LINEAR)
Observations:
CK03G010 C2003 05 18.19332 17 29 54.95 +04 12 58.9 16.5 T 859
CK03G010 C2003 05 18.20197 17 29 54.64 +04 13 04.3 16.5 T 859
CK03G010 C2003 05 18.21352 17 29 54.22 +04 13 11.8 16.2 T 859
CK03G010 C2003 05 28.66449 17 23 49.98 +06 05 14.0 349
CK03G010 C2003 05 28.66737 17 23 49.87 +06 05 15.8 349
CK03G010 C2003 05 28.67017 17 23 49.76 +06 05 17.9 349
CK03G010 C2003 05 28.67295 17 23 49.65 +06 05 19.4 16.0 T 349
CK03G010 C2003 05 30.37030 17 22 46.79 +06 22 30.3 15.4 T H72
CK03G010 C2003 05 30.37250 17 22 46.68 +06 22 31.7 15.1 T H72
CK03G010 C2003 05 30.37469 17 22 46.59 +06 22 33.3 14.3 T H72
CK03G010 C2003 05 30.37689 17 22 46.56 +06 22 34.5 15.0 T H72
CK03G010 C2003 05 30.37909 17 22 46.42 +06 22 36.2 15.3 T H72
CK03G010 C2003 05 30.38128 17 22 46.41 +06 22 37.2 15.7 T H72
CK03G010 C2003 05 30.38348 17 22 46.34 +06 22 38.7 14.5 T H72
CK03G010 C2003 05 31.01650 17 22 22.76 +06 28 57.3 15.1 N A01
CK03G010 C2003 05 31.02306 17 22 22.51 +06 29 00.7 15.1 N A01
CK03G010 C2003 05 31.02525 17 22 22.43 +06 29 01.8 15.1 N A01
CK03G010 C2003 05 31.14378 17 22 18.09 +06 30 14.2 16.4 T H72
CK03G010 C2003 05 31.14545 17 22 18.00 +06 30 15.4 15.2 T H72
CK03G010 C2003 05 31.14745 17 22 17.90 +06 30 16.3 15.3 T H72
CK03G010 C2003 05 31.15158 17 22 17.82 +06 30 18.0 16.0 T H72
CK03G010 C2003 05 31.15370 17 22 17.72 +06 30 20.3 15.1 T H72
CK03G010 C2003 05 31.15556 17 22 17.68 +06 30 21.6 15.5 T H72
CK03G010 C2003 05 31.97781 17 21 46.77 +06 38 29.1 15.4 T 213
CK03G010 C2003 05 31.97896 17 21 46.73 +06 38 29.0 15.4 T 213
CK03G010 C2003 06 01.02852 17 21 44.83 +06 38 58.9 15.1 N A32
CK03G010 C2003 06 01.03302 17 21 44.63 +06 39 01.4 15.0 N A32
CK03G010 C2003 06 01.03640 17 21 44.52 +06 39 03.5 15.0 N A32
CK03G010 C2003 06 01.33814 17 21 33.17 +06 42 01.4 15.8 T 333
CK03G010 C2003 06 01.33852 17 21 33.11 +06 42 00.2 15.3 T 333
CK03G010 C2003 06 01.34285 17 21 32.99 +06 42 03.9 15.7 T 333
CK03G010 C2003 06 01.34324 17 21 32.93 +06 42 03.0 15.3 T 333
CK03G010 C2003 06 01.34766 17 21 32.81 +06 42 06.7 15.6 T 333
CK03G010 C2003 06 01.34804 17 21 32.75 +06 42 05.9 15.3 T 333
CK03G010 C2003 06 01.35252 17 21 32.61 +06 42 09.8 15.7 T 333
CK03G010 C2003 06 01.35289 17 21 32.48 +06 42 08.0 15.1 T 333
CK03G010 C2003 06 01.52568 17 21 26.15 +06 43 51.3 15.9 T 367
CK03G010 C2003 06 01.52811 17 21 26.06 +06 43 52.2 15.9 T 367
CK03G010 C2003 06 01.53054 17 21 26.02 +06 43 54.1 16.1 T 367
CK03G010 C2003 06 01.64280 17 21 21.69 +06 45 00.5 15.6 T 360
CK03G010 C2003 06 01.64558 17 21 21.59 +06 45 02.0 360
CK03G010 C2003 06 01.64620 17 21 21.55 +06 45 01.6 15.6 T 900
CK03G010 C2003 06 01.65282 17 21 21.31 +06 45 05.6 15.9 T 900
CK03G010 C2003 06 01.65816 17 21 21.10 +06 45 09.1 15.8 T 349
CK03G010 C2003 06 01.66137 17 21 20.96 +06 45 11.2 349
CK03G010 C2003 06 01.66456 17 21 20.82 +06 45 12.9 349
CK03G010 C2003 06 01.66559 17 21 20.76 +06 45 13.3 16.8 N 379
CK03G010 C2003 06 01.67064 17 21 20.58 +06 45 15.9 16.9 N 379
CK03G010 C2003 06 01.86012 17 21 13.54 +06 47 07.1 16.0 N 151
CK03G010 C2003 06 01.86262 17 21 13.46 +06 47 08.6 16.0 N 151
CK03G010 C2003 06 01.86398 17 21 13.40 +06 47 09.5 16.1 N 151
CK03G010 C2003 06 01.86582 17 21 13.33 +06 47 10.6 16.1 N 151
CK03G010 C2003 06 01.99116 17 21 08.54 +06 48 23.4 048
CK03G010 C2003 06 01.99191 17 21 08.47 +06 48 23.8 048
CK03G010 C2003 06 01.99267 17 21 08.46 +06 48 24.4 048
CK03G010 C2003 06 01.99346 17 21 08.45 +06 48 24.2 048
CK03G010 C2003 06 01.99501 17 21 08.36 +06 48 25.2 048
CK03G010 C2003 06 01.99576 17 21 08.35 +06 48 25.7 048
CK03G010 C2003 06 01.99728 17 21 08.31 +06 48 27.0 048
CK03G010 C2003 06 01.99803 17 21 08.24 +06 48 27.5 048
CK03G010 C2003 06 02.00189 17 21 08.11 +06 48 28.9 048
CK03G010 C2003 06 02.00344 17 21 08.08 +06 48 30.5 048
CK03G010 C2003 06 02.21837 17 21 00.05 +06 50 36.7 15.3 T H72
CK03G010 C2003 06 02.22001 17 21 00.01 +06 50 37.8 15.7 T H72
CK03G010 C2003 06 02.22144 17 20 59.87 +06 50 38.1 15.4 T H72
CK03G010 C2003 06 02.22236 17 20 59.84 +06 50 38.6 15.6 T H72
CK03G010 C2003 06 02.22418 17 20 59.83 +06 50 39.9 15.5 T H72
CK03G010 C2003 06 02.22552 17 20 59.66 +06 50 40.5 15.7 T H72
CK03G010 C2003 06 02.22683 17 20 59.64 +06 50 41.1 15.9 T H72
CK03G010 C2003 06 02.98346 17 20 30.93 +06 57 58.1 048
CK03G010 C2003 06 02.98421 17 20 30.89 +06 57 58.7 048
CK03G010 C2003 06 02.98573 17 20 30.81 +06 57 58.8 048
CK03G010 C2003 06 02.98648 17 20 30.82 +06 57 59.4 048
CK03G010 C2003 06 02.98725 17 20 30.77 +06 58 00.2 048
CK03G010 C2003 06 02.98800 17 20 30.74 +06 58 00.4 048
CK03G010 C2003 06 02.98875 17 20 30.74 +06 58 00.7 048
CK03G010 C2003 06 02.98950 17 20 30.68 +06 58 01.7 048
CK03G010 C2003 06 02.99025 17 20 30.65 +06 58 02.1 048
CK03G010 C2003 06 02.99252 17 20 30.57 +06 58 03.8 048
CK03G010 C2003 06 03.15658 17 20 24.40 +06 59 39.1 15.5 T H72
CK03G010 C2003 06 03.15780 17 20 24.34 +06 59 39.6 15.6 T H72
CK03G010 C2003 06 03.15976 17 20 24.35 +06 59 40.6 15.8 T H72
CK03G010 C2003 06 03.16144 17 20 24.25 +06 59 41.4 15.4 T H72
CK03G010 C2003 06 03.16312 17 20 24.16 +06 59 42.4 15.6 T H72
CK03G010 C2003 06 03.16645 17 20 24.06 +06 59 44.0 14.6 T H72
CK03G010 C2003 06 03.26714 17 20 20.15 +07 00 42.5 15.0 T H41
CK03G010 C2003 06 03.27578 17 20 19.82 +07 00 47.1 15.0 T H41
CK03G010 C2003 06 04.97045 17 19 15.23 +07 16 48.4 048
CK03G010 C2003 06 04.97120 17 19 15.18 +07 16 49.1 048
CK03G010 C2003 06 04.97197 17 19 15.11 +07 16 48.9 048
CK03G010 C2003 06 04.97273 17 19 15.12 +07 16 49.9 048
CK03G010 C2003 06 04.97348 17 19 15.14 +07 16 49.9 048
CK03G010 C2003 06 04.97427 17 19 15.11 +07 16 50.3 048
CK03G010 C2003 06 04.97506 17 19 15.04 +07 16 51.0 048
CK03G010 C2003 06 04.97582 17 19 14.99 +07 16 51.5 048
CK03G010 C2003 06 04.97659 17 19 14.93 +07 16 51.3 048
CK03G010 C2003 06 04.97735 17 19 14.94 +07 16 51.9 048
CK03G010 C2003 06 04.97813 17 19 14.87 +07 16 52.6 048
CK03G010 C2003 06 04.97889 17 19 14.86 +07 16 52.9 048
CK03G010 C2003 06 04.97964 17 19 14.85 +07 16 53.2 048
CK03G010 C2003 06 04.98039 17 19 14.80 +07 16 53.7 048
CK03G010 C2003 06 04.98117 17 19 14.81 +07 16 53.8 048
CK03G010 C2003 06 05.63060 17 18 49.94 +07 22 58.0 15.5 T 360
CK03G010 C2003 06 05.63302 17 18 49.86 +07 22 59.1 360
CK03G010 C2003 06 07.01758 17 17 56.76 +07 35 39.6 048
CK03G010 C2003 06 07.01833 17 17 56.72 +07 35 40.4 048
CK03G010 C2003 06 07.01909 17 17 56.62 +07 35 40.7 048
CK03G010 C2003 06 07.01984 17 17 56.77 +07 35 42.0 048
CK03G010 C2003 06 07.02060 17 17 56.74 +07 35 41.6 048
CK03G010 C2003 06 07.02218 17 17 56.56 +07 35 42.8 048
CK03G010 C2003 06 07.02293 17 17 56.58 +07 35 42.8 048
CK03G010 C2003 06 07.02372 17 17 56.68 +07 35 42.6 048
CK03G010 C2003 06 07.02447 17 17 56.49 +07 35 43.0 048
CK03G010 C2003 06 07.02522 17 17 56.43 +07 35 44.4 048
CK03G010 C2003 06 07.02749 17 17 56.31 +07 35 45.4 048
CK03G010 C2003 06 07.02906 17 17 56.34 +07 35 47.6 048
CK03G010 C2003 06 07.02984 17 17 56.29 +07 35 46.9 048
CK03G010 C2003 06 07.03396 17 17 55.99 +07 35 48.9 048
CK03G010 C2003 06 07.03554 17 17 55.98 +07 35 52.0 048
CK03G010 C2003 06 07.27510 17 17 46.96 +07 38 00.3 16.6 T 704
CK03G010 C2003 06 07.28540 17 17 46.54 +07 38 07.1 17.2 T 704
CK03G010 C2003 06 07.29613 17 17 46.10 +07 38 13.3 16.8 T 704
CK03G010 C2003 06 07.30647 17 17 45.70 +07 38 18.9 17.0 T 704
CK03G010 C2003 06 07.31698 17 17 45.15 +07 38 24.2 16.9 T 704
CK03G010 C2003 06 07.34101 17 17 44.23 +07 38 37.8 15.2 T H41
Observer details:
048 Hradec Kralove. Observer M. Lehky. 0.40-m f/5 reflector + CCD.
151 Eschenberg Observatory, Winterthur. Observer M. Griesser. 0.40-m f/5.8
Hypergraph + CCD.
213 Observatorio Montcabre. Observer R. Naves. Measurer M. Campas. 0.30-m
f/5.5 Schmidt-Cassegrain + CCD.
333 Desert Eagle Observatory. Observer W. K. Y. Yeung. 0.45-m reflector
+ CCD.
349 Ageo. Observer K. Kadota. 0.25-m f/5.0 reflector + CCD.
360 Kuma Kogen. Observer A. Nakamura. 0.60-m f/5.8 Ritchey-Chretien + CCD.
367 Yatsuka. Observer H. Abe. 0.26-m f/6 reflector + CCD.
379 Hamamatsu-Yuto. Observer S. Wakuda. 0.25-m f/5.0 Schmidt-Cassegrain
+ CCD.
704 Lincoln Laboratory ETS, New Mexico. Observers M. Blythe, F. Shelly,
M. Bezpalko, R. Huber, L. Manguso, S. Adams, D. Torres, T. Brothers,
S. Partridge. Measurers J. Stuart, R. Sayer, J. Evans, P. Hopman. 1.0-m
f/2.15 reflector + CCD.
859 Wykrota Observatory-CEAMIG. Observer C. Jacques. 0.30-m f/3
Schmidt-Cassegrain + CCD.
900 Moriyama. Observer Y. Ikari. 0.25-m f/6.3 reflector + CCD.
A01 Masia Cal Maciarol Modul 1. Observer F. Baldris. 0.20-m f/5.0 Newtonian
+ CCD.
A32 Panker. Observer H. Denzau. 0.36-m Schmidt-Cassegrain f/5.5 + CCD.
H41 Petit Jean Mountain. Observer P. C. Sherrod. 0.41-m f/3.7
Schmidt-Cassegrain + CCD.
H72 Evelyn L. Egan Observatory, Fort Myers. Observers M. Fauerbach, M. Mon,
S. Schonberg. 0.40-m f/5.3 reflector + CCD.
Orbital elements:
C/2003 G1 (LINEAR)
T 2003 Feb. 3.6881 TT MPC
q 4.915267 (2000.0) P Q
Peri. 11.4284 -0.3261414 +0.4327973
Node 246.0819 -0.9235212 -0.3356996
e 1.0 Incl. 66.8354 -0.2018425 +0.8366554
From 484 observations 2003 Apr. 8-June 7.
Brian G. Marsden (C) Copyright 2003 MPC M.P.E.C. 2003-L23
Read MPEC 2003-L22
Read MPEC 2003-L24
Our Web policy. Index to the CBAT/MPC/ICQ pages.